Location: ????????
(42.0488°N, 44.0407°E)
Time: 05:18:56
(UTC+00:00)

COSMOS 2428 - Pass Details

Date: 07 June 2020
Orbit: 845 x 857 km, 70.9° (Epoch: 03 July)

Event Time Altitude Azimuth Distance (km) Brightness Sun altitude
Exits shadow 00:24:46 - 190° (S) 2,787 4.9 -10.1°
Reaches altitude 10° 00:25:38 10° 189° (S) 2,461 4.7 -10.0°
Maximum altitude 00:31:12 62° 110° (ESE) 950 3.1 -9.3°
Drops below altitude 10° 00:36:47 10° 31° (NNE) 2,474 6.5 -8.5°
Sets 00:39:15 0° 28° (NNE) 3,413 7.4 -8.2°
